Accueil
METAR-TAF:

METAR-TAF

Aéroports :

Payerne, Suisse

Aérodrome de Payerne

latitude: 46-49N, longitude: 006-57E, altitude: 490 m

Observation

Le bulletin a été fait il y a 27 minutes, à 18:50 UTC
Vent 8 kt de sud-ouest
Température 4°C
Humidité 87%
Pression 990 hPa
Visibilité 10 km ou plus
Quelques nuages à une hauteur de 1900 ft
Ciel couvert à une hauteur de 2600 ft
pluie faible

METAR: LSMP 111850Z AUTO 23008KT 9999NDV -RA FEW019 OVC026 04/02 Q0990 RMK

Heure: 20:17 (19:17 UTC)


TAF: absent

Observations et prévisions météorologiques de plus de 4000 aéroports (messages METAR et TAF).

Les stations disponibles sont représentées par des disques jaunes et rouges sur la carte.

Passer la souris dessus pour voir le nom de la station.

Cliquer dessus pour voir les observations et prévisions météorologiques.

Pour changer de carte: cliquez sur les boutons verts avec une croix noire pour zoomer, sur le bouton vert avec un tiret pour effectuer un zoom arrière, ou sur les flèches vertes pour les cartes adjacentes.


METAR-TAF: